User: anonymous   Login
Location: Fort Wayne
(41.1310°N, 85.1290°W)
Time: 03:07:55
(UTC-04:00)
Language:

Cosmos 2082 - Orbit

View from above orbital plane
View from above orbital plane
View from above satellite
View from above satellite

Ground track
Ground track

The orbit data is extracted from the following two-line orbital elements,

1 20624U 90046A   15116.82106466 -.00000154  00000-0 -56071-4 0  9995
2 20624 071.0422 052.0136 0013463 149.0577 211.1341 14.14152028286589
Epoch (UTC): 26 April 2015 19:42:19
Eccentricity: 0.0013463
inclination: 71.0422°
perigee height: 835 km
apogee height: 855 km
right ascension of ascending node: 52.0136°
argument of perigee: 149.0577°
revolutions per day: 14.14152028
mean anomaly at epoch: 211.1341°
orbit number at epoch: 28658

The dashed part of the orbit path shows where the satellite is in the earth's shadow,  

DLR